JS2WAD-13 Weather Reports


time (UTC)temp
C
wind
direction
speed
KPH
gust
KPH
rain 1hr
cm
rain 24hr
cm
rain mn
cm
humidity
%
barometer
mb
20260508231111 16 37 16.1 33.8 0.00 0.00 0.00 52 906.2
20260508230611 16 31 17.7 35.4 0.00 0.00 0.00 53 906.3
20260508230111 16 31 17.7 37.0 0.00 0.00 0.00 52 906.1
20260508225611 16 20 17.7 33.8 0.00 0.00 0.00 52 905.9
20260508225111 16 36 17.7 30.6 0.00 0.00 0.00 55 906.1
20260508224611 16 29 17.7 40.2 0.00 0.00 0.00 53 905.9
20260508224111 16 26 16.1 29.0 0.00 0.00 0.00 54 905.9
20260508223611 15 35 14.5 30.6 0.00 0.00 0.00 55 905.9
20260508223111 15 31 16.1 29.0 0.00 0.00 0.00 58 905.8
20260508222611 15 43 16.1 29.0 0.00 0.00 0.00 55 905.7
20260508222111 15 43 14.5 30.6 0.00 0.00 0.00 56 905.7
20260508221611 15 35 14.5 24.1 0.00 0.00 0.00 58 905.8
20260508221111 15 23 17.7 33.8 0.00 0.00 0.00 57 905.7
20260508220611 15 35 19.3 35.4 0.00 0.00 0.00 60 905.6
20260508220111 15 34 17.7 32.2 0.00 0.00 0.00 56 905.5
20260508215611 15 18 14.5 27.4 0.00 0.00 0.00 59 905.5
20260508215111 15 25 14.5 30.6 0.00 0.00 0.00 60 905.5
20260508214611 15 39 12.9 25.7 0.00 0.00 0.00 65 905.4
20260508214111 15 31 11.3 33.8 0.00 0.00 0.00 61 905.3
20260508213611 14 21 8.0 24.1 0.00 0.00 0.00 63 905.3
20260508213111 14 359 8.0 22.5 0.00 0.00 0.00 63 905.1
20260508212611 14 37 9.7 20.9 0.00 0.00 0.00 65 905.3
20260508212112 14 43 9.7 24.1 0.00 0.00 0.00 63 905.0
20260508211612 14 23 9.7 17.7 0.00 0.00 0.00 65 904.9
20260508211111 14 15 11.3 17.7 0.00 0.00 0.00 64 904.9
20260508210612 13 43 11.3 19.3 0.00 0.00 0.00 64 905.0
20260508210112 14 38 9.7 20.9 0.00 0.00 0.00 65 904.9
20260508205612 14 25 9.7 20.9 0.00 0.00 0.00 65 904.9
20260508205112 14 37 8.0 20.9 0.00 0.00 0.00 66 904.9
20260508204612 14 29 8.0 14.5 0.00 0.00 0.00 65 904.8
20260508204112 14 45 9.7 14.5 0.00 0.00 0.00 64 904.9
20260508203612 14 29 9.7 17.7 0.00 0.00 0.00 63 904.5
20260508203112 14 354 11.3 22.5 0.00 0.00 0.00 63 904.6
20260508202612 14 43 9.7 20.9 0.00 0.00 0.00 64 904.7
20260508202112 14 32 8.0 22.5 0.00 0.00 0.00 65 904.7
20260508201612 14 25 6.4 17.7 0.00 0.00 0.00 65 904.7
20260508201112 14 16 6.4 17.7 0.00 0.00 0.00 65 904.8
20260508200612 14 38 4.8 17.7 0.00 0.00 0.00 63 904.8
20260508200112 14 37 4.8 9.7 0.00 0.03 0.00 66 904.6
20260508195612 14 40 6.4 14.5 0.00 0.03 0.00 68 904.6
20260508195112 14 27 8.0 12.9 0.00 0.03 0.00 62 904.0
20260508194612 14 12 8.0 17.7 0.00 0.03 0.00 62 904.4
20260508194112 14 25 9.7 17.7 0.00 0.03 0.00 61 904.2
20260508193612 14 43 8.0 19.3 0.00 0.03 0.00 62 904.1
20260508193112 15 41 4.8 11.3 0.00 0.03 0.00 61 904.1
20260508192612 14 26 6.4 16.1 0.00 0.03 0.00 63 904.0
20260508192112 15 23 8.0 20.9 0.00 0.03 0.00 61 904.1
20260508191612 15 39 9.7 19.3 0.00 0.03 0.00 62 904.0
20260508191112 15 4 11.3 19.3 0.00 0.03 0.00 61 904.1
20260508190612 15 39 11.3 24.1 0.00 0.03 0.00 63 903.9
20260508190112 15 27 12.9 19.3 0.00 0.03 0.00 61 903.9
20260508185612 15 35 14.5 27.4 0.00 0.03 0.00 61 904.1
20260508185112 15 26 12.9 29.0 0.00 0.03 0.00 61 904.1
20260508184612 15 22 11.3 24.1 0.00 0.03 0.00 62 903.8
20260508184112 15 341 9.7 24.1 0.00 0.03 0.00 64 903.7
20260508183612 15 19 11.3 14.5 0.00 0.03 0.00 64 903.6
20260508183112 15 36 12.9 25.7 0.00 0.03 0.00 62 903.7
20260508182612 15 13 12.9 27.4 0.00 0.03 0.00 63 903.6
20260508182112 15 343 9.7 24.1 0.00 0.03 0.00 63 903.6
20260508181612 15 29 8.0 17.7 0.00 0.03 0.00 65 903.6
20260508181112 15 35 6.4 17.7 0.00 0.03 0.00 64 903.8
20260508180612 15 34 4.8 14.5 0.00 0.03 0.00 66 903.8
20260508180112 15 39 9.7 19.3 0.00 0.03 0.00 64 903.7
20260508175612 15 27 12.9 30.6 0.00 0.03 0.00 65 903.6
20260508175112 15 31 12.9 27.4 0.00 0.03 0.00 62 903.8
20260508174612 15 35 12.9 20.9 0.00 0.03 0.00 65 903.6
20260508174112 15 41 11.3 27.4 0.00 0.03 0.00 60 903.6
20260508173612 16 24 8.0 16.1 0.00 0.03 0.00 60 903.6
20260508173112 16 24 9.7 19.3 0.00 0.03 0.00 59 903.4
20260508172612 16 39 9.7 20.9 0.00 0.03 0.00 59 903.4
20260508172112 16 14 8.0 24.1 0.00 0.03 0.00 57 903.3
20260508171612 16 19 4.8 19.3 0.00 0.03 0.00 58 903.3
20260508171112 16 31 4.8 12.9 0.00 0.03 0.00 61 903.3
20260508170612 16 37 6.4 17.7 0.00 0.03 0.00 55 903.1
20260508170112 16 34 4.8 14.5 0.00 0.03 0.00 55 903.2
20260508165612 16 347 1.6 11.3 0.00 0.03 0.00 52 903.6
20260508165112 16 43 0.0 4.8 0.00 0.03 0.03 49 903.4
20260508164612 16 43 0.0 1.6 0.00 0.03 0.03 49 903.6
20260508164112 16 44 0.0 1.6 0.00 0.03 0.03 50 903.3
20260508163612 16 43 0.0 1.6 0.00 0.03 0.03 49 903.4
20260508163112 16 43 0.0 3.2 0.00 0.03 0.03 49 903.3
20260508162612 16 43 0.0 3.2 0.00 0.03 0.03 48 903.4
20260508162112 16 42 1.6 3.2 0.00 0.03 0.03 48 903.4
20260508161612 16 43 1.6 3.2 0.00 0.03 0.03 48 903.3
20260508161112 16 41 1.6 6.4 0.00 0.03 0.03 47 903.5
20260508160612 16 43 1.6 4.8 0.00 0.03 0.03 49 903.2
20260508160112 16 43 3.2 6.4 0.00 0.03 0.03 49 903.3
20260508155612 16 37 1.6 9.7 0.00 0.03 0.03 48 903.4
20260508155112 16 42 1.6 4.8 0.00 0.03 0.03 50 903.5
20260508154612 16 40 1.6 8.0 0.00 0.03 0.03 53 903.5
20260508154112 16 38 1.6 8.0 0.00 0.03 0.03 45 903.5
20260508153612 16 37 1.6 3.2 0.00 0.03 0.03 52 903.5
20260508153112 16 35 1.6 4.8 0.00 0.03 0.03 53 903.5
20260508152612 16 35 1.6 6.4 0.00 0.03 0.03 48 903.4
20260508152112 16 40 1.6 4.8 0.00 0.03 0.03 44 903.5
20260508151612 16 39 3.2 6.4 0.00 0.03 0.03 49 903.4
20260508151112 16 39 3.2 8.0 0.00 0.03 0.03 52 903.3
20260508150612 16 39 3.2 6.4 0.00 0.03 0.03 48 903.4
20260508150112 16 41 3.2 4.8 0.00 0.03 0.03 43 903.6
20260508145612 16 31 3.2 4.8 0.00 0.03 0.03 42 903.5
20260508145112 16 35 3.2 8.0 0.00 0.03 0.03 43 903.5
20260508144612 17 34 3.2 8.0 0.00 0.03 0.03 46 903.3
20260508144112 17 38 3.2 9.7 0.00 0.03 0.03 43 903.4
20260508143612 17 13 3.2 8.0 0.00 0.03 0.03 44 903.4
20260508143112 17 40 1.6 8.0 0.00 0.03 0.03 41 903.4
20260508142612 17 31 1.6 4.8 0.00 0.03 0.03 42 903.3
20260508142112 17 28 3.2 4.8 0.00 0.03 0.03 42 903.3
20260508141612 17 27 3.2 9.7 0.00 0.03 0.03 41 903.4
20260508141112 17 33 3.2 8.0 0.00 0.03 0.03 41 903.2
20260508140612 17 41 3.2 6.4 0.00 0.03 0.03 42 903.2
20260508140112 17 31 4.8 11.3 0.00 0.03 0.03 41 903.5
20260508135612 17 47 4.8 9.7 0.00 0.03 0.03 41 903.4
20260508135112 17 24 4.8 12.9 0.00 0.03 0.03 44 903.3
20260508134613 17 42 4.8 14.5 0.00 0.03 0.03 45 903.1
20260508134113 17 29 4.8 14.5 0.00 0.03 0.03 45 903.2
20260508133612 17 33 6.4 9.7 0.00 0.03 0.03 43 903.0
20260508133113 17 36 8.0 16.1 0.00 0.03 0.03 43 902.8
20260508132613 17 33 9.7 16.1 0.00 0.03 0.03 43 902.8
20260508132113 17 38 6.4 17.7 0.00 0.03 0.03 43 902.7
20260508131613 17 35 8.0 16.1 0.00 0.03 0.03 45 902.8
20260508131113 17 43 11.3 22.5 0.00 0.03 0.03 41 902.6
20260508130613 17 35 11.3 24.1 0.00 0.03 0.03 42 902.6
20260508130113 18 36 9.7 16.1 0.00 0.03 0.03 45 902.4
20260508125613 18 37 8.0 24.1 0.00 0.03 0.03 48 902.3
20260508125113 18 23 8.0 17.7 0.00 0.03 0.03 50 902.1
20260508124613 18 25 8.0 22.5 0.00 0.03 0.03 53 902.0
20260508124113 18 21 8.0 19.3 0.00 0.03 0.03 53 902.4
20260508123613 18 38 11.3 17.7 0.00 0.03 0.03 52 902.2
20260508123113 18 35 11.3 25.7 0.00 0.03 0.03 54 901.8
20260508122613 18 21 11.3 20.9 0.00 0.03 0.03 54 902.0
20260508122113 18 34 12.9 22.5 0.00 0.03 0.03 59 902.0
20260508121613 18 45 11.3 22.5 0.00 0.03 0.03 53 901.9
20260508121113 18 31 11.3 17.7 0.00 0.03 0.03 54 901.9
20260508120613 18 45 11.3 24.1 0.00 0.03 0.03 56 901.9
20260508120113 18 37 12.9 22.5 0.00 0.03 0.03 54 901.9
20260508115613 18 29 11.3 27.4 0.00 0.03 0.03 55 901.9
20260508115113 18 43 11.3 24.1 0.00 0.03 0.03 55 901.7
20260508114613 18 12 12.9 19.3 0.00 0.03 0.03 56 901.7
20260508114113 18 35 16.1 32.2 0.00 0.03 0.03 55 901.6
20260508113613 18 8 17.7 32.2 0.00 0.03 0.03 55 901.6
20260508113113 18 4 16.1 29.0 0.00 0.03 0.03 54 901.4
20260508112613 18 18 14.5 30.6 0.00 0.03 0.03 55 901.4
20260508112113 18 339 16.1 29.0 0.00 0.03 0.03 57 901.3
20260508111613 18 10 16.1 32.2 0.00 0.03 0.03 57 901.0
20260508111113 18 25 12.9 35.4 0.00 0.03 0.03 58 901.0
20260508110613 18 33 9.7 19.3 0.00 0.03 0.03 61 901.0
20260508110113 18 37 9.7 19.3 0.00 0.03 0.03 61 900.8
20260508105613 18 35 9.7 19.3 0.00 0.03 0.03 61 900.9
20260508105113 18 35 11.3 16.1 0.00 0.03 0.03 61 900.7
20260508104613 18 40 11.3 25.7 0.00 0.03 0.03 60 900.8
20260508104113 19 20 9.7 19.3 0.00 0.03 0.03 61 900.5
20260508103613 19 33 8.0 17.7 0.00 0.03 0.03 61 900.2
20260508103113 19 41 9.7 19.3 0.00 0.03 0.03 63 900.3
20260508102613 19 37 9.7 20.9 0.00 0.03 0.03 62 900.1
20260508102113 19 43 8.0 17.7 0.00 0.03 0.03 62 899.9
20260508101613 19 45 9.7 16.1 0.00 0.03 0.03 64 899.6
20260508101113 19 26 12.9 29.0 0.00 0.03 0.03 61 899.8
20260508100613 19 34 17.7 25.7 0.00 0.03 0.03 62 899.7
20260508100113 19 13 19.3 30.6 0.00 0.03 0.03 61 899.4
20260508095613 19 34 16.1 32.2 0.00 0.03 0.03 61 899.7
20260508095113 19 34 16.1 33.8 0.00 0.03 0.03 61 899.5
20260508094613 19 37 16.1 27.4 0.00 0.03 0.03 61 899.0
20260508094113 20 27 16.1 33.8 0.00 0.03 0.03 62 898.7
20260508093613 20 14 16.1 29.0 0.00 0.03 0.03 62 898.8
20260508093113 20 35 16.1 25.7 0.00 0.03 0.03 60 898.5
20260508092613 20 31 14.5 27.4 0.00 0.03 0.03 61 898.9
20260508092113 20 39 14.5 24.1 0.00 0.03 0.03 60 898.5
20260508091613 20 31 14.5 25.7 0.00 0.03 0.03 59 898.4
20260508091113 20 26 14.5 32.2 0.00 0.03 0.03 59 898.5
20260508090613 21 39 16.1 32.2 0.00 0.03 0.03 59 898.5
20260508090113 21 39 16.1 27.4 0.00 0.03 0.03 60 898.4
20260508085613 21 14 14.5 29.0 0.00 0.03 0.03 58 898.3
20260508085113 21 31 12.9 20.9 0.00 0.03 0.03 60 898.1
20260508084613 21 31 12.9 25.7 0.00 0.03 0.03 59 898.1
20260508084113 21 37 12.9 25.7 0.00 0.03 0.03 62 898.0
20260508083613 21 50 14.5 24.1 0.00 0.03 0.03 61 897.8
20260508083113 21 31 16.1 32.2 0.00 0.03 0.03 62 897.8
20260508082613 22 10 14.5 29.0 0.00 0.03 0.03 60 897.6
20260508082113 22 32 14.5 32.2 0.00 0.03 0.03 59 897.4
20260508081613 22 10 17.7 33.8 0.00 0.03 0.03 58 897.4
20260508081113 23 359 16.1 30.6 0.00 0.03 0.03 56 897.3
20260508080613 24 31 9.7 29.0 0.00 0.03 0.03 53 897.2
20260508080113 24 221 8.0 9.7 0.00 0.03 0.03 37 896.5
20260508075613 24 4 8.0 29.0 0.00 0.03 0.03 41 896.3
20260508075113 24 208 6.4 29.0 0.00 0.03 0.03 45 896.4
20260508074613 24 160 6.4 11.3 0.00 0.03 0.03 51 896.4
20260508074113 24 189 4.8 19.3 0.00 0.03 0.03 53 896.4
20260508073613 24 183 1.6 14.5 0.00 0.03 0.03 57 896.4
20260508073113 24 167 1.6 6.4 0.00 0.03 0.03 60 896.5
20260508072613 24 200 3.2 8.0 0.00 0.03 0.03 60 896.3
20260508072113 24 165 3.2 8.0 0.00 0.03 0.03 59 896.1
20260508071613 24 156 4.8 16.1 0.00 0.03 0.03 56 896.1
20260508071113 24 145 6.4 11.3 0.00 0.03 0.03 57 896.1
20260508070613 24 147 6.4 22.5 0.00 0.03 0.03 57 896.2
20260508070113 24 152 4.8 11.3 0.00 0.03 0.03 59 896.5
20260508065613 24 188 3.2 11.3 0.00 0.03 0.03 61 896.5
20260508065113 23 154 3.2 9.7 0.00 0.03 0.03 62 896.6
20260508064613 23 338 3.2 9.7 0.00 0.03 0.03 65 896.8
20260508064113 23 149 4.8 8.0 0.00 0.03 0.03 65 896.7
20260508063613 23 169 6.4 16.1 0.00 0.03 0.03 65 896.7
20260508063113 23 190 6.4 14.5 0.00 0.03 0.03 66 896.7
20260508062614 23 149 4.8 17.7 0.00 0.03 0.03 66 896.9
20260508062114 23 145 4.8 12.9 0.00 0.03 0.03 66 896.9
20260508061614 23 147 8.0 14.5 0.00 0.03 0.03 66 896.9
20260508061114 23 140 8.0 20.9 0.00 0.03 0.03 66 897.1
20260508060614 23 154 8.0 16.1 0.00 0.03 0.03 66 896.9
20260508060114 23 154 6.4 17.7 0.00 0.03 0.03 66 896.3
20260508055614 23 359 6.4 16.1 0.00 0.03 0.03 66 897.1
20260508055114 23 154 4.8 14.5 0.00 0.03 0.03 67 896.8
20260508054614 23 148 3.2 11.3 0.00 0.03 0.03 68 896.9
20260508054114 23 326 4.8 8.0 0.00 0.03 0.03 69 896.8
20260508053614 23 149 4.8 14.5 0.00 0.03 0.03 69 896.8
20260508053114 23 151 3.2 8.0 0.00 0.03 0.03 70 896.7
20260508052614 23 145 3.2 8.0 0.00 0.03 0.03 70 896.8
20260508052114 23 165 6.4 11.3 0.00 0.03 0.03 70 896.8
20260508051614 23 149 6.4 16.1 0.00 0.03 0.03 70 896.9
20260508051114 23 153 4.8 9.7 0.00 0.03 0.03 70 897.1
20260508050614 23 149 4.8 12.9 0.00 0.03 0.03 70 897.1
20260508050114 23 170 4.8 12.9 0.00 0.03 0.03 70 896.8
20260508045614 23 162 6.4 14.5 0.00 0.03 0.03 70 897.2
20260508045114 23 145 6.4 14.5 0.00 0.03 0.03 70 897.3
20260508044614 23 141 6.4 16.1 0.00 0.03 0.03 70 897.2
20260508044114 23 147 4.8 14.5 0.00 0.03 0.03 70 897.1
20260508043614 23 183 3.2 9.7 0.00 0.03 0.03 70 897.0
20260508043114 23 145 3.2 8.0 0.00 0.03 0.03 70 897.2
20260508042614 23 150 3.2 9.7 0.00 0.03 0.03 70 897.2
20260508042114 23 155 3.2 11.3 0.00 0.03 0.03 70 897.2
20260508041614 23 145 3.2 9.7 0.00 0.03 0.03 70 897.4
20260508041114 23 146 3.2 9.7 0.00 0.03 0.03 70 897.5
20260508040614 23 158 3.2 11.3 0.00 0.03 0.03 71 897.5
20260508040114 23 140 3.2 9.7 0.00 0.03 0.03 71 897.1
20260508035614 23 158 4.8 9.7 0.00 0.03 0.03 71 897.7
20260508035114 23 145 4.8 12.9 0.00 0.03 0.03 71 897.5
20260508034614 23 204 6.4 11.3 0.00 0.03 0.03 72 897.8
20260508034114 23 152 6.4 12.9 0.00 0.03 0.03 73 897.7
20260508033614 23 151 4.8 12.9 0.00 0.03 0.03 75 897.8
20260508033114 23 148 6.4 9.7 0.00 0.03 0.03 74 898.0
20260508032614 23 146 4.8 12.9 0.00 0.03 0.03 74 898.0
20260508032114 23 154 3.2 11.3 0.00 0.03 0.03 74 898.0
20260508031614 23 143 3.2 8.0 0.00 0.03 0.03 74 898.4
20260508031114 23 145 3.2 6.4 0.00 0.03 0.03 75 898.3
20260508030614 23 154 4.8 11.3 0.00 0.03 0.03 74 898.3
20260508030114 23 186 4.8 12.9 0.00 0.03 0.03 73 898.5
20260508025614 23 183 4.8 14.5 0.00 0.03 0.03 73 898.7
20260508025114 24 21 3.2 9.7 0.00 0.03 0.03 73 898.7
20260508024614 24 354 1.6 8.0 0.00 0.03 0.03 72 898.4
20260508024114 23 202 0.0 4.8 0.00 0.03 0.03 72 898.3
20260508023614 23 152 1.6 3.2 0.00 0.03 0.03 72 898.2
20260508023114 23 168 3.2 9.7 0.00 0.03 0.03 71 898.4
20260508022614 23 156 1.6 8.0 0.00 0.03 0.03 71 898.7
20260508022114 23 30 1.6 4.8 0.00 0.03 0.03 71 898.6
20260508021614 23 156 1.6 3.2 0.00 0.03 0.03 71 898.4
20260508021114 23 156 1.6 8.0 0.00 0.03 0.03 71 898.3
20260508020614 23 185 1.6 4.8 0.00 0.03 0.03 71 898.8
20260508020114 23 165 0.0 4.8 0.00 0.03 0.03 71 898.5
20260508015614 23 166 1.6 6.4 0.00 0.03 0.03 70 898.7
20260508015114 23 164 1.6 4.8 0.00 0.03 0.03 70 899.0
20260508014614 23 165 1.6 6.4 0.00 0.03 0.03 70 899.2
20260508014114 23 171 1.6 4.8 0.00 0.03 0.03 70 899.2
20260508013614 23 173 1.6 6.4 0.00 0.03 0.03 70 899.2
20260508013114 23 174 1.6 6.4 0.00 0.03 0.03 70 899.0
20260508012614 23 203 0.0 4.8 0.00 0.03 0.03 70 899.3
20260508012114 23 65 0.0 1.6 0.00 0.03 0.03 71 899.1
20260508011614 23 66 1.6 4.8 0.00 0.03 0.03 71 899.3
20260508011114 23 66 0.0 3.2 0.00 0.03 0.03 72 899.0
20260508010614 23 59 0.0 1.6 0.00 0.03 0.03 73 899.3
20260508010114 22 58 0.0 1.6 0.00 0.03 0.03 75 899.5
20260508005614 22 58 1.6 4.8 0.00 0.03 0.03 75 899.6
20260508005114 22 56 1.6 3.2 0.00 0.03 0.03 76 899.7
20260508004614 22 66 1.6 4.8 0.00 0.03 0.03 78 899.4
20260508004114 22 59 0.0 4.8 0.00 0.03 0.03 78 899.5
20260508003614 22 49 0.0 3.2 0.00 0.03 0.03 78 899.7
20260508003114 22 49 0.0 3.2 0.00 0.03 0.03 79 899.4
20260508002614 22 35 1.6 3.2 0.00 0.03 0.03 80 899.7
20260508002114 22 35 1.6 4.8 0.00 0.03 0.03 80 899.9
20260508001614 22 34 0.0 3.2 0.00 0.03 0.03 81 899.6
20260508001114 22 35 0.0 3.2 0.00 0.03 0.03 80 899.9
20260508000614 22 34 1.6 6.4 0.00 0.03 0.03 81 899.8
20260508000114 22 34 1.6 6.4 0.00 0.03 0.03 80 899.9
20260507235614 22 38 1.6 4.8 0.00 0.03 0.03 81 899.6
20260507235114 22 41 1.6 4.8 0.00 0.03 0.03 80 899.6
20260507234614 22 136 0.0 3.2 0.00 0.03 0.03 79 899.8
20260507234114 22 137 0.0 6.4 0.00 0.03 0.03 79 899.6
20260507233614 22 136 0.0 1.6 0.00 0.03 0.03 79 899.8
20260507233114 21 137 0.0 1.6 0.00 0.03 0.03 80 899.4
20260507232614 21 135 0.0 1.6 0.00 0.03 0.03 81 899.7
20260507232114 21 137 0.0 3.2 0.00 0.03 0.03 80 899.7
20260507231614 21 137 0.0 1.6 0.00 0.03 0.03 84 899.8